Time,TemperatureF,DewpointF,PressureIn,WindDirection,WindDirectionDegrees,WindSpeedMPH,WindSpeedGustMPH,Humidity,HourlyPrecipIn,Conditions,Clouds,dailyrainin,SoftwareType,DateUTC
2013-05-04 00:00:00,25.0,23.8,30.05,WNW,290,0.0,1.0,95,0.00,,---,0.04,VWS V14.01,2013-05-04 08:00:00,
2013-05-04 00:05:00,24.9,23.7,30.05,WNW,290,0.0,0.0,95,0.00,,---,0.00,VWS V14.01,2013-05-04 08:05:00,
2013-05-04 00:10:00,24.9,23.7,30.05,WNW,290,0.0,1.0,95,0.00,,---,0.00,VWS V14.01,2013-05-04 08:10:00,
2013-05-04 00:15:00,25.1,23.9,30.05,NNE,18,0.0,3.0,95,0.00,,---,0.00,VWS V14.01,2013-05-04 08:15:00,
2013-05-04 00:20:00,25.1,23.9,30.06,NNE,18,0.0,3.0,95,0.00,,---,0.00,VWS V14.01,2013-05-04 08:20:00,
2013-05-04 00:25:00,25.0,23.8,30.06,NNE,18,0.0,3.0,95,0.00,,---,0.00,VWS V14.01,2013-05-04 08:25:00,
2013-05-04 00:30:00,24.9,23.7,30.06,NNE,18,0.0,3.0,95,0.00,,---,0.00,VWS V14.01,2013-05-04 08:30:00,
2013-05-04 00:35:00,24.8,23.6,30.06,NNE,18,0.0,0.0,95,0.00,,---,0.00,VWS V14.01,2013-05-04 08:35:00,
2013-05-04 00:40:00,24.8,23.6,30.06,NNE,18,0.0,0.0,95,0.00,,---,0.00,VWS V14.01,2013-05-04 08:40:00,
2013-05-04 00:45:00,24.7,23.5,30.06,NNE,18,0.0,2.0,95,0.00,,---,0.00,VWS V14.01,2013-05-04 08:45:00,
2013-05-04 00:50:00,24.5,23.3,30.06,NNE,18,0.0,2.0,95,0.00,,---,0.00,VWS V14.01,2013-05-04 08:50:00,
2013-05-04 00:55:00,24.5,23.3,30.06,NNE,18,0.0,2.0,95,0.00,,---,0.00,VWS V14.01,2013-05-04 08:55:00,
2013-05-04 01:00:00,24.5,23.3,30.07,NNE,18,0.0,2.0,95,0.00,,---,0.00,VWS V14.01,2013-05-04 09:00:00,
2013-05-04 01:05:00,24.7,23.7,30.06,NNE,18,0.0,0.0,96,0.00,,---,0.00,VWS V14.01,2013-05-04 09:05:00,
2013-05-04 01:10:00,24.6,23.4,30.06,NNW,334,0.0,3.0,95,0.00,,---,0.00,VWS V14.01,2013-05-04 09:10:00,
2013-05-04 01:15:00,24.5,23.3,30.07,NNW,334,0.0,3.0,95,0.00,,---,0.00,VWS V14.01,2013-05-04 09:15:00,
2013-05-04 01:20:00,24.5,23.3,30.07,NNW,335,0.0,3.0,95,0.00,,---,0.00,VWS V14.01,2013-05-04 09:20:00,
2013-05-04 01:25:00,24.3,23.1,30.07,NNW,335,0.0,3.0,95,0.00,,---,0.00,VWS V14.01,2013-05-04 09:25:00,
2013-05-04 01:30:00,24.3,22.8,30.07,NNW,335,0.0,3.0,94,0.00,,---,0.00,VWS V14.01,2013-05-04 09:30:00,
2013-05-04 01:35:00,24.3,22.8,30.07,NNW,335,0.0,0.0,94,0.00,,---,0.00,VWS V14.01,2013-05-04 09:35:00,
2013-05-04 01:40:00,24.2,22.7,30.07,NNW,335,0.0,2.0,94,0.00,,---,0.00,VWS V14.01,2013-05-04 09:40:00,
2013-05-04 01:45:00,24.1,22.6,30.07,NW,305,0.0,2.0,94,0.00,,---,0.00,VWS V14.01,2013-05-04 09:45:00,
2013-05-04 01:50:00,23.8,22.3,30.07,NW,305,0.0,2.0,94,0.00,,---,0.00,VWS V14.01,2013-05-04 09:50:00,
2013-05-04 01:55:00,23.8,22.3,30.06,NW,305,0.0,2.0,94,0.00,,---,0.00,VWS V14.01,2013-05-04 09:55:00,
2013-05-04 02:00:00,23.7,22.2,30.07,NW,305,0.0,2.0,94,0.00,,---,0.00,VWS V14.01,2013-05-04 10:00:00,
2013-05-04 02:05:00,23.7,22.2,30.07,NW,305,0.0,1.0,94,0.00,,---,0.00,VWS V14.01,2013-05-04 10:05:00,
2013-05-04 02:10:00,23.6,22.1,30.07,NW,305,1.0,2.0,94,0.00,,---,0.00,VWS V14.01,2013-05-04 10:10:00,
2013-05-04 02:15:00,23.5,21.8,30.07,NW,305,0.0,2.0,93,0.00,,---,0.00,VWS V14.01,2013-05-04 10:15:00,
2013-05-04 02:20:00,23.4,21.7,30.07,NW,305,0.0,2.0,93,0.00,,---,0.00,VWS V14.01,2013-05-04 10:20:00,
2013-05-04 02:25:00,23.4,21.7,30.07,NW,305,0.0,2.0,93,0.00,,---,0.00,VWS V14.01,2013-05-04 10:25:00,
2013-05-04 02:30:00,23.3,21.6,30.07,NW,305,0.0,2.0,93,0.00,,---,0.00,VWS V14.01,2013-05-04 10:30:00,
2013-05-04 02:35:00,23.2,21.5,30.07,NW,305,0.0,1.0,93,0.00,,---,0.00,VWS V14.01,2013-05-04 10:35:00,
2013-05-04 02:40:00,23.1,21.4,30.07,NW,305,0.0,1.0,93,0.00,,---,0.00,VWS V14.01,2013-05-04 10:40:00,
2013-05-04 02:45:00,23.1,21.4,30.07,NW,305,1.0,1.0,93,0.00,,---,0.00,VWS V14.01,2013-05-04 10:45:00,
2013-05-04 02:50:00,23.0,21.3,30.07,NW,305,0.0,1.0,93,0.00,,---,0.00,VWS V14.01,2013-05-04 10:50:00,
2013-05-04 02:55:00,23.0,21.3,30.07,NW,305,0.0,1.0,93,0.00,,---,0.00,VWS V14.01,2013-05-04 10:55:00,
2013-05-04 03:00:00,22.9,21.2,30.07,NW,305,0.0,1.0,93,0.00,,---,0.00,VWS V14.01,2013-05-04 11:00:00,
2013-05-04 03:05:00,22.7,20.7,30.07,NW,305,0.0,2.0,92,0.00,,---,0.00,VWS V14.01,2013-05-04 11:05:00,
2013-05-04 03:10:00,22.5,20.5,30.07,NW,305,1.0,2.0,92,0.00,,---,0.00,VWS V14.01,2013-05-04 11:10:00,
2013-05-04 03:15:00,22.4,20.4,30.07,NW,305,1.0,2.0,92,0.00,,---,0.00,VWS V14.01,2013-05-04 11:15:00,
2013-05-04 03:20:00,22.2,20.2,30.07,NW,305,0.0,2.0,92,0.00,,---,0.00,VWS V14.01,2013-05-04 11:20:00,
2013-05-04 03:25:00,22.2,20.2,30.07,NW,305,0.0,2.0,92,0.00,,---,0.00,VWS V14.01,2013-05-04 11:25:00,
2013-05-04 03:30:00,22.1,20.1,30.07,NW,305,0.0,2.0,92,0.00,,---,0.00,VWS V14.01,2013-05-04 11:30:00,
2013-05-04 03:35:00,21.9,19.9,30.07,NW,305,0.0,1.0,92,0.00,,---,0.00,VWS V14.01,2013-05-04 11:35:00,
2013-05-04 03:40:00,21.8,19.8,30.07,NW,305,0.0,1.0,92,0.00,,---,0.00,VWS V14.01,2013-05-04 11:40:00,
2013-05-04 03:45:00,21.7,19.7,30.07,NW,305,0.0,2.0,92,0.00,,---,0.00,VWS V14.01,2013-05-04 11:45:00,
2013-05-04 03:50:00,21.7,19.7,30.07,NW,305,0.0,2.0,92,0.00,,---,0.00,VWS V14.01,2013-05-04 11:50:00,
2013-05-04 03:55:00,21.6,19.6,30.07,NW,305,0.0,2.0,92,0.00,,---,0.00,VWS V14.01,2013-05-04 11:55:00,
2013-05-04 04:00:00,21.5,19.5,30.06,NW,305,0.0,2.0,92,0.00,,---,0.00,VWS V14.01,2013-05-04 12:00:00,
2013-05-04 04:05:00,21.4,19.4,30.06,NW,305,0.0,0.0,92,0.00,,---,0.00,VWS V14.01,2013-05-04 12:05:00,
2013-05-04 04:10:00,21.3,19.6,30.06,NW,305,0.0,0.0,93,0.00,,---,0.00,VWS V14.01,2013-05-04 12:10:00,
2013-05-04 04:15:00,21.3,19.3,30.06,NW,305,1.0,1.0,92,0.00,,---,0.00,VWS V14.01,2013-05-04 12:15:00,
2013-05-04 04:20:00,21.2,19.2,30.06,NW,305,0.0,1.0,92,0.00,,---,0.00,VWS V14.01,2013-05-04 12:20:00,
2013-05-04 04:25:00,21.2,19.2,30.06,NW,305,0.0,1.0,92,0.00,,---,0.00,VWS V14.01,2013-05-04 12:25:00,
2013-05-04 04:30:00,21.2,19.5,30.06,NW,305,0.0,1.0,93,0.00,,---,0.00,VWS V14.01,2013-05-04 12:30:00,
2013-05-04 04:36:00,21.2,19.5,30.06,NW,305,0.0,0.0,93,0.00,,---,0.00,VWS V14.01,2013-05-04 12:36:00,
2013-05-04 04:41:00,21.3,19.6,30.06,NW,305,0.0,1.0,93,0.00,,---,0.00,VWS V14.01,2013-05-04 12:41:00,
2013-05-04 04:46:00,21.3,19.6,30.06,NW,305,0.0,1.0,93,0.00,,---,0.00,VWS V14.01,2013-05-04 12:46:00,
2013-05-04 04:51:00,21.2,19.5,30.06,NW,305,0.0,1.0,93,0.00,,---,0.00,VWS V14.01,2013-05-04 12:51:00,
2013-05-04 04:56:00,21.1,19.4,30.06,NW,305,0.0,1.0,93,0.00,,---,0.00,VWS V14.01,2013-05-04 12:56:00,
2013-05-04 05:00:00,21.0,19.3,30.06,NW,305,0.0,1.0,93,0.00,,---,0.00,VWS V14.01,2013-05-04 13:00:00,
2013-05-04 05:03:00,20.9,19.2,30.06,NW,305,0.0,0.0,93,0.00,,---,0.00,VWS V14.01,2013-05-04 13:03:00,
2013-05-04 05:08:00,20.8,19.1,30.06,NW,305,0.0,0.0,93,0.00,,---,0.00,VWS V14.01,2013-05-04 13:08:00,
2013-05-04 05:13:00,20.8,19.1,30.06,NW,305,0.0,1.0,93,0.00,,---,0.00,VWS V14.01,2013-05-04 13:13:00,
2013-05-04 05:18:00,20.7,19.2,30.06,NW,305,0.0,1.0,94,0.00,,---,0.00,VWS V14.01,2013-05-04 13:18:00,
2013-05-04 05:23:00,20.6,19.1,30.06,NW,305,0.0,1.0,94,0.00,,---,0.00,VWS V14.01,2013-05-04 13:23:00,
2013-05-04 05:28:00,20.5,19.0,30.06,NW,305,0.0,1.0,94,0.00,,---,0.00,VWS V14.01,2013-05-04 13:28:00,
2013-05-04 05:30:00,20.4,19.0,30.06,NW,305,0.0,1.0,94,0.00,,---,0.00,VWS V14.01,2013-05-04 13:30:00,
2013-05-04 05:33:00,20.4,19.0,30.06,NW,305,0.0,1.0,94,0.00,,---,0.00,VWS V14.01,2013-05-04 13:33:00,
2013-05-04 05:38:00,20.4,19.0,30.06,West,276,0.0,3.0,94,0.00,,---,0.00,VWS V14.01,2013-05-04 13:38:00,
2013-05-04 05:43:00,20.4,19.0,30.06,West,272,0.0,3.0,94,0.00,,---,0.00,VWS V14.01,2013-05-04 13:43:00,
2013-05-04 05:48:00,20.3,18.9,30.05,WSW,256,0.0,3.0,94,0.00,,---,0.00,VWS V14.01,2013-05-04 13:48:00,
2013-05-04 05:53:00,20.3,18.9,30.06,WSW,256,0.0,3.0,94,0.00,,---,0.00,VWS V14.01,2013-05-04 13:53:00,
2013-05-04 05:58:00,20.1,18.6,30.05,WSW,253,0.0,3.0,94,0.00,,---,0.00,VWS V14.01,2013-05-04 13:58:00,
2013-05-04 06:00:00,20.1,18.6,30.06,WSW,249,2.0,3.0,94,0.00,,---,0.00,VWS V14.01,2013-05-04 14:00:00,
2013-05-04 06:03:00,20.0,18.5,30.06,WSW,249,0.0,2.0,94,0.00,,---,0.00,VWS V14.01,2013-05-04 14:03:00,
2013-05-04 06:08:00,20.0,18.5,30.05,WSW,249,0.0,2.0,94,0.00,,---,0.00,VWS V14.01,2013-05-04 14:08:00,
2013-05-04 06:13:00,20.0,18.5,30.05,WSW,249,0.0,2.0,94,0.00,,---,0.00,VWS V14.01,2013-05-04 14:13:00,
2013-05-04 06:18:00,20.1,18.6,30.05,WSW,249,0.0,2.0,94,0.00,,---,0.00,VWS V14.01,2013-05-04 14:18:00,
2013-05-04 06:23:00,20.1,18.6,30.05,WSW,249,0.0,2.0,94,0.00,,---,0.00,VWS V14.01,2013-05-04 14:23:00,
2013-05-04 06:28:00,20.1,18.6,30.05,WSW,249,0.0,2.0,94,0.00,,---,0.00,VWS V14.01,2013-05-04 14:28:00,
2013-05-04 06:30:00,20.2,19.0,30.05,WSW,249,0.0,2.0,95,0.00,,---,0.00,VWS V14.01,2013-05-04 14:30:00,
2013-05-04 06:33:00,20.2,19.0,30.05,WSW,249,0.0,1.0,95,0.00,,---,0.00,VWS V14.01,2013-05-04 14:33:00,
2013-05-04 06:38:00,20.2,18.8,30.05,WSW,248,1.0,1.0,94,0.00,,---,0.00,VWS V14.01,2013-05-04 14:38:00,
2013-05-04 06:43:00,20.3,19.1,30.05,WSW,248,0.0,2.0,95,0.00,,---,0.00,VWS V14.01,2013-05-04 14:43:00,
2013-05-04 06:48:00,20.4,19.2,30.05,WSW,248,1.0,2.0,95,0.00,,---,0.00,VWS V14.01,2013-05-04 14:48:00,
2013-05-04 06:53:00,20.4,19.2,30.05,WSW,248,0.0,2.0,95,0.00,,---,0.00,VWS V14.01,2013-05-04 14:53:00,
2013-05-04 06:58:00,20.5,19.0,30.05,WSW,247,1.0,2.0,94,0.00,,---,0.00,VWS V14.01,2013-05-04 14:58:00,
2013-05-04 07:00:00,20.4,19.0,30.05,SW,224,0.0,2.0,94,0.00,,---,0.00,VWS V14.01,2013-05-04 15:00:00,
2013-05-04 07:03:00,20.4,19.0,30.05,SW,224,1.0,2.0,94,0.00,,---,0.00,VWS V14.01,2013-05-04 15:03:00,
2013-05-04 07:08:00,20.4,19.0,30.05,SSW,208,0.0,2.0,94,0.00,,---,0.00,VWS V14.01,2013-05-04 15:08:00,
2013-05-04 07:13:00,20.4,19.0,30.05,SSW,195,1.0,3.0,94,0.00,,---,0.00,VWS V14.01,2013-05-04 15:13:00,
2013-05-04 07:18:00,20.5,19.0,30.05,South,187,1.0,3.0,94,0.00,,---,0.00,VWS V14.01,2013-05-04 15:18:00,
2013-05-04 07:23:00,20.5,19.0,30.05,South,171,0.0,3.0,94,0.00,,---,0.00,VWS V14.01,2013-05-04 15:23:00,
2013-05-04 07:28:00,20.5,19.0,30.05,South,171,0.0,3.0,94,0.00,,---,0.00,VWS V14.01,2013-05-04 15:28:00,
2013-05-04 07:30:00,20.5,19.0,30.05,South,171,1.0,4.0,94,0.00,,---,0.00,VWS V14.01,2013-05-04 15:30:00,
2013-05-04 07:33:00,20.6,19.1,30.05,South,171,0.0,1.0,94,0.00,,---,0.00,VWS V14.01,2013-05-04 15:33:00,
2013-05-04 07:38:00,20.7,19.2,30.05,South,171,1.0,2.0,94,0.00,,---,0.00,VWS V14.01,2013-05-04 15:38:00,
2013-05-04 07:43:00,20.8,19.4,30.05,South,171,0.0,2.0,94,0.00,,---,0.00,VWS V14.01,2013-05-04 15:43:00,
2013-05-04 07:48:00,20.9,19.5,30.04,South,171,1.0,2.0,94,0.00,,---,0.00,VWS V14.01,2013-05-04 15:48:00,
2013-05-04 07:53:00,20.9,19.5,30.04,South,171,2.0,4.0,94,0.00,,---,0.00,VWS V14.01,2013-05-04 15:53:00,
2013-05-04 07:58:00,20.8,19.4,30.04,South,171,0.0,5.0,94,0.00,,---,0.00,VWS V14.01,2013-05-04 15:58:00,
2013-05-04 08:00:00,20.8,19.4,30.04,South,172,4.0,5.0,94,0.00,,---,0.00,VWS V14.01,2013-05-04 16:00:00,
2013-05-04 08:03:00,20.8,19.4,30.04,South,172,2.0,4.0,94,0.00,,---,0.00,VWS V14.01,2013-05-04 16:03:00,
2013-05-04 08:08:00,20.7,19.2,30.04,South,171,2.0,4.0,94,0.00,,---,0.00,VWS V14.01,2013-05-04 16:08:00,
2013-05-04 08:13:00,20.7,19.2,30.04,South,170,1.0,5.0,94,0.00,,---,0.00,VWS V14.01,2013-05-04 16:13:00,
2013-05-04 08:18:00,20.7,19.2,30.04,South,170,0.0,5.0,94,0.00,,---,0.00,VWS V14.01,2013-05-04 16:18:00,
2013-05-04 08:23:00,20.7,19.2,30.04,South,170,1.0,5.0,94,0.00,,---,0.00,VWS V14.01,2013-05-04 16:23:00,
2013-05-04 08:28:00,20.8,19.4,30.04,South,170,2.0,5.0,94,0.00,,---,0.00,VWS V14.01,2013-05-04 16:28:00,
2013-05-04 08:30:00,20.8,19.4,30.04,South,171,1.0,5.0,94,0.00,,---,0.00,VWS V14.01,2013-05-04 16:30:00,
2013-05-04 08:33:00,20.9,19.5,30.04,South,171,0.0,1.0,94,0.00,,---,0.00,VWS V14.01,2013-05-04 16:33:00,
2013-05-04 08:38:00,21.0,19.5,30.04,South,171,0.0,1.0,94,0.00,,---,0.00,VWS V14.01,2013-05-04 16:38:00,
2013-05-04 08:43:00,21.1,19.6,30.04,South,171,0.0,1.0,94,0.00,,---,0.00,VWS V14.01,2013-05-04 16:43:00,
2013-05-04 08:48:00,21.2,19.5,30.04,South,171,0.0,2.0,93,0.00,,---,0.00,VWS V14.01,2013-05-04 16:48:00,
2013-05-04 08:53:00,21.4,19.7,30.04,South,171,0.0,2.0,93,0.00,,---,0.00,VWS V14.01,2013-05-04 16:53:00,
2013-05-04 08:58:00,21.7,20.0,30.04,South,171,1.0,4.0,93,0.00,,---,0.00,VWS V14.01,2013-05-04 16:58:00,
2013-05-04 09:00:00,21.6,19.9,30.03,South,171,1.0,4.0,93,0.00,,---,0.00,VWS V14.01,2013-05-04 17:00:00,
2013-05-04 09:03:00,21.6,19.9,30.04,South,171,0.0,1.0,93,0.00,,---,0.00,VWS V14.01,2013-05-04 17:03:00,
2013-05-04 09:08:00,21.5,19.5,30.03,South,171,1.0,4.0,92,0.00,,---,0.00,VWS V14.01,2013-05-04 17:08:00,
2013-05-04 09:13:00,21.4,19.4,30.03,South,171,1.0,4.0,92,0.00,,---,0.00,VWS V14.01,2013-05-04 17:13:00,
2013-05-04 09:18:00,21.5,19.5,30.04,South,171,0.0,4.0,92,0.00,,---,0.00,VWS V14.01,2013-05-04 17:18:00,
2013-05-04 09:23:00,21.5,19.5,30.03,South,171,0.0,4.0,92,0.00,,---,0.00,VWS V14.01,2013-05-04 17:23:00,
2013-05-04 09:28:00,21.6,19.6,30.03,South,171,0.0,4.0,92,0.00,,---,0.00,VWS V14.01,2013-05-04 17:28:00,
2013-05-04 09:30:00,21.5,19.3,30.03,South,171,0.0,5.0,91,0.00,,---,0.00,VWS V14.01,2013-05-04 17:30:00,
2013-05-04 09:33:00,21.5,19.3,30.03,South,171,0.0,1.0,91,0.00,,---,0.00,VWS V14.01,2013-05-04 17:33:00,
2013-05-04 09:38:00,21.4,19.2,30.03,South,170,2.0,4.0,91,0.00,,---,0.00,VWS V14.01,2013-05-04 17:38:00,
2013-05-04 09:43:00,21.4,19.2,30.03,South,171,0.0,4.0,91,0.00,,---,0.00,VWS V14.01,2013-05-04 17:43:00,
2013-05-04 09:48:00,21.6,19.6,30.03,South,171,0.0,4.0,92,0.00,,---,0.00,VWS V14.01,2013-05-04 17:48:00,
2013-05-04 09:53:00,21.8,19.8,30.03,South,170,0.0,4.0,92,0.00,,---,0.00,VWS V14.01,2013-05-04 17:53:00,
2013-05-04 09:58:00,22.1,20.1,30.02,South,171,0.0,4.0,92,0.00,,---,0.00,VWS V14.01,2013-05-04 17:58:00,
2013-05-04 10:00:00,22.2,20.0,30.02,South,171,0.0,4.0,91,0.00,,---,0.00,VWS V14.01,2013-05-04 18:00:00,
2013-05-04 10:03:00,22.2,20.0,30.02,South,171,0.0,0.0,91,0.00,,---,0.00,VWS V14.01,2013-05-04 18:03:00,
2013-05-04 10:08:00,22.3,19.8,30.02,South,171,0.0,1.0,90,0.00,,---,0.00,VWS V14.01,2013-05-04 18:08:00,
2013-05-04 10:13:00,22.4,19.9,30.02,South,171,0.0,4.0,90,0.00,,---,0.00,VWS V14.01,2013-05-04 18:13:00,
2013-05-04 10:18:00,22.5,20.0,30.02,South,171,0.0,4.0,90,0.00,,---,0.00,VWS V14.01,2013-05-04 18:18:00,
2013-05-04 10:23:00,22.7,20.5,30.02,South,171,0.0,4.0,91,0.00,,---,0.00,VWS V14.01,2013-05-04 18:23:00,
2013-05-04 10:28:00,22.7,20.2,30.02,South,171,0.0,4.0,90,0.00,,---,0.00,VWS V14.01,2013-05-04 18:28:00,
2013-05-04 10:30:00,22.7,20.0,30.02,South,171,0.0,4.0,89,0.00,,---,0.00,VWS V14.01,2013-05-04 18:30:00,
2013-05-04 10:33:00,22.7,20.2,30.02,South,171,0.0,0.0,90,0.00,,---,0.00,VWS V14.01,2013-05-04 18:33:00,
2013-05-04 10:38:00,22.8,20.3,30.02,South,171,0.0,4.0,90,0.00,,---,0.00,VWS V14.01,2013-05-04 18:38:00,
2013-05-04 10:43:00,22.9,20.4,30.01,South,171,0.0,4.0,90,0.00,,---,0.00,VWS V14.01,2013-05-04 18:43:00,
2013-05-04 10:48:00,23.0,20.5,30.01,South,171,0.0,4.0,90,0.00,,---,0.00,VWS V14.01,2013-05-04 18:48:00,
2013-05-04 10:53:00,22.9,20.1,30.01,South,171,0.0,4.0,89,0.00,,---,0.00,VWS V14.01,2013-05-04 18:53:00,
2013-05-04 10:58:00,23.0,20.2,30.01,South,171,0.0,4.0,89,0.00,,---,0.00,VWS V14.01,2013-05-04 18:58:00,
2013-05-04 11:00:00,23.1,20.4,30.01,South,180,0.0,4.0,89,0.00,,---,0.00,VWS V14.01,2013-05-04 19:00:00,
2013-05-04 11:03:00,23.1,20.4,30.01,South,171,0.0,0.0,89,0.00,,---,0.00,VWS V14.01,2013-05-04 19:03:00,
2013-05-04 11:08:00,23.2,20.2,30.01,South,171,0.0,2.0,88,0.00,,---,0.00,VWS V14.01,2013-05-04 19:08:00,
2013-05-04 11:13:00,23.2,20.5,30.01,South,171,4.0,4.0,89,0.00,,---,0.00,VWS V14.01,2013-05-04 19:13:00,
2013-05-04 11:18:00,23.3,20.5,30.01,South,171,0.0,4.0,89,0.00,,---,0.00,VWS V14.01,2013-05-04 19:18:00,
2013-05-04 11:23:00,23.5,20.7,30.01,South,171,0.0,4.0,89,0.00,,---,0.00,VWS V14.01,2013-05-04 19:23:00,
2013-05-04 11:28:00,23.6,20.6,30.01,South,171,0.0,4.0,88,0.00,,---,0.00,VWS V14.01,2013-05-04 19:28:00,
2013-05-04 11:30:00,23.6,20.6,30.01,South,180,0.0,5.0,88,0.00,,---,0.00,VWS V14.01,2013-05-04 19:30:00,
2013-05-04 11:32:00,23.6,20.6,30.01,South,171,1.0,2.0,88,0.00,,---,0.00,VWS V14.01,2013-05-04 19:32:00,
2013-05-04 11:37:00,23.6,20.8,30.01,South,171,0.0,2.0,89,0.00,,---,0.00,VWS V14.01,2013-05-04 19:37:00,
2013-05-04 11:42:00,23.6,20.8,30.01,South,180,0.0,3.0,89,0.00,,---,0.00,VWS V14.01,2013-05-04 19:42:00,
2013-05-04 11:47:00,23.5,20.5,30.01,South,182,0.0,3.0,88,0.00,,---,0.00,VWS V14.01,2013-05-04 19:47:00,
2013-05-04 11:52:00,23.6,20.8,30.01,South,182,2.0,3.0,89,0.00,,---,0.00,VWS V14.01,2013-05-04 19:52:00,
2013-05-04 11:57:00,23.6,20.8,30.01,South,182,0.0,3.0,89,0.00,,---,0.00,VWS V14.01,2013-05-04 19:57:00,
2013-05-04 12:00:00,23.7,20.9,30.01,South,180,0.0,3.0,89,0.00,,---,0.00,VWS V14.01,2013-05-04 20:00:00,
2013-05-04 12:02:00,23.7,20.9,30.01,South,182,0.0,0.0,89,0.00,,---,0.00,VWS V14.01,2013-05-04 20:02:00,
2013-05-04 12:07:00,23.8,21.0,30.01,South,182,1.0,3.0,89,0.00,,---,0.00,VWS V14.01,2013-05-04 20:07:00,
2013-05-04 12:12:00,23.8,21.0,30.01,South,182,1.0,4.0,89,0.00,,---,0.00,VWS V14.01,2013-05-04 20:12:00,
2013-05-04 12:17:00,23.9,21.1,30.01,South,182,1.0,4.0,89,0.00,,---,0.00,VWS V14.01,2013-05-04 20:17:00,
2013-05-04 12:22:00,23.9,20.9,30.01,South,182,2.0,4.0,88,0.00,,---,0.00,VWS V14.01,2013-05-04 20:22:00,
2013-05-04 12:27:00,23.9,20.9,30.01,South,182,0.0,4.0,88,0.00,,---,0.00,VWS V14.01,2013-05-04 20:27:00,
2013-05-04 12:30:00,23.9,20.9,30.01,South,180,1.0,4.0,88,0.00,,---,0.00,VWS V14.01,2013-05-04 20:30:00,
2013-05-04 12:32:00,23.9,20.9,30.01,South,182,1.0,2.0,88,0.00,,---,0.00,VWS V14.01,2013-05-04 20:32:00,
2013-05-04 12:37:00,24.0,21.2,30.01,South,182,1.0,2.0,89,0.00,,---,0.00,VWS V14.01,2013-05-04 20:37:00,
2013-05-04 12:42:00,24.1,21.1,30.01,South,182,0.0,3.0,88,0.00,,---,0.00,VWS V14.01,2013-05-04 20:42:00,
2013-05-04 12:47:00,24.1,21.1,30.01,South,182,2.0,3.0,88,0.00,,---,0.00,VWS V14.01,2013-05-04 20:47:00,
2013-05-04 12:52:00,24.2,21.2,30.01,South,182,2.0,3.0,88,0.00,,---,0.00,VWS V14.01,2013-05-04 20:52:00,
2013-05-04 12:57:00,24.4,21.4,30.02,South,182,1.0,3.0,88,0.00,,---,0.00,VWS V14.01,2013-05-04 20:57:00,
2013-05-04 13:00:00,24.5,21.5,30.01,South,180,1.0,4.0,88,0.00,,---,0.00,VWS V14.01,2013-05-04 21:00:00,
2013-05-04 13:02:00,24.5,21.5,30.01,South,182,0.0,0.0,88,0.00,,---,0.00,VWS V14.01,2013-05-04 21:02:00,
2013-05-04 13:07:00,24.8,21.5,30.02,South,182,0.0,2.0,87,0.00,,---,0.00,VWS V14.01,2013-05-04 21:07:00,
2013-05-04 13:12:00,25.0,22.0,30.02,SW,224,1.0,3.0,88,0.00,,---,0.00,VWS V14.01,2013-05-04 21:12:00,
2013-05-04 13:17:00,25.1,21.8,30.02,SW,224,2.0,3.0,87,0.00,,---,0.00,VWS V14.01,2013-05-04 21:17:00,
2013-05-04 13:22:00,25.0,21.7,30.02,SW,224,0.0,4.0,87,0.00,,---,0.00,VWS V14.01,2013-05-04 21:22:00,
2013-05-04 13:27:00,25.1,21.5,30.02,SW,231,2.0,4.0,86,0.00,,---,0.00,VWS V14.01,2013-05-04 21:27:00,
2013-05-04 13:30:00,25.1,21.5,30.02,SW,225,1.0,4.0,86,0.00,,---,0.00,VWS V14.01,2013-05-04 21:30:00,
2013-05-04 13:32:00,25.1,21.5,30.02,WSW,244,4.0,4.0,86,0.00,,---,0.00,VWS V14.01,2013-05-04 21:32:00,
2013-05-04 13:37:00,25.0,21.7,30.02,WSW,244,1.0,4.0,87,0.00,,---,0.00,VWS V14.01,2013-05-04 21:37:00,
2013-05-04 13:42:00,25.3,22.0,30.02,WSW,244,1.0,4.0,87,0.00,,---,0.00,VWS V14.01,2013-05-04 21:42:00,
2013-05-04 13:47:00,25.4,21.8,30.02,WSW,244,1.0,4.0,86,0.00,,---,0.00,VWS V14.01,2013-05-04 21:47:00,
2013-05-04 13:52:00,25.3,21.7,30.02,WSW,244,1.0,4.0,86,0.00,,---,0.00,VWS V14.01,2013-05-04 21:52:00,
2013-05-04 13:57:00,25.3,22.0,30.02,WSW,244,0.0,4.0,87,0.00,,---,0.00,VWS V14.01,2013-05-04 21:57:00,
2013-05-04 14:00:00,25.4,22.1,30.02,WSW,248,1.0,4.0,87,0.00,,---,0.00,VWS V14.01,2013-05-04 22:00:00,
2013-05-04 14:02:00,25.5,22.2,30.02,WSW,244,1.0,2.0,87,0.00,,---,0.00,VWS V14.01,2013-05-04 22:02:00,
2013-05-04 14:07:00,25.6,22.3,30.02,WNW,292,3.0,7.0,87,0.00,,---,0.00,VWS V14.01,2013-05-04 22:07:00,
2013-05-04 14:12:00,25.7,22.4,30.02,West,277,3.0,7.0,87,0.00,,---,0.00,VWS V14.01,2013-05-04 22:12:00,
2013-05-04 14:17:00,25.7,22.6,30.02,NW,308,0.0,7.0,88,0.00,,---,0.00,VWS V14.01,2013-05-04 22:17:00,
2013-05-04 14:22:00,25.9,22.6,30.02,NW,306,1.0,7.0,87,0.00,,---,0.00,VWS V14.01,2013-05-04 22:22:00,
2013-05-04 14:27:00,26.0,22.7,30.02,NW,305,2.0,7.0,87,0.00,,---,0.00,VWS V14.01,2013-05-04 22:27:00,
2013-05-04 14:30:00,26.1,22.8,30.02,NW,315,1.0,7.0,87,0.00,,---,0.00,VWS V14.01,2013-05-04 22:30:00,
2013-05-04 14:32:00,26.1,22.8,30.02,NW,306,2.0,3.0,87,0.00,,---,0.00,VWS V14.01,2013-05-04 22:32:00,
2013-05-04 14:37:00,26.1,22.8,30.02,NW,306,1.0,3.0,87,0.00,,---,0.00,VWS V14.01,2013-05-04 22:37:00,
2013-05-04 14:42:00,26.2,22.9,30.02,North,5,0.0,5.0,87,0.00,,---,0.00,VWS V14.01,2013-05-04 22:42:00,
2013-05-04 14:47:00,26.4,23.1,30.02,North,5,0.0,5.0,87,0.00,,---,0.00,VWS V14.01,2013-05-04 22:47:00,
2013-05-04 14:52:00,26.5,22.9,30.02,WNW,285,2.0,5.0,86,0.00,,---,0.00,VWS V14.01,2013-05-04 22:52:00,
2013-05-04 14:57:00,26.6,23.0,30.02,WNW,284,1.0,5.0,86,0.00,,---,0.00,VWS V14.01,2013-05-04 22:57:00,
2013-05-04 15:00:00,26.8,23.2,30.02,NW,315,1.0,6.0,86,0.00,,---,0.00,VWS V14.01,2013-05-04 23:00:00,
2013-05-04 15:02:00,26.9,23.3,30.02,WNW,284,0.0,1.0,86,0.00,,---,0.00,VWS V14.01,2013-05-04 23:02:00,
2013-05-04 15:07:00,27.1,23.2,30.02,NW,311,0.0,4.0,85,0.00,,---,0.00,VWS V14.01,2013-05-04 23:07:00,
2013-05-04 15:12:00,27.3,23.4,30.02,NW,309,1.0,4.0,85,0.00,,---,0.00,VWS V14.01,2013-05-04 23:12:00,
2013-05-04 15:17:00,27.3,23.1,30.02,NW,304,0.0,4.0,84,0.00,,---,0.00,VWS V14.01,2013-05-04 23:17:00,
2013-05-04 15:22:00,27.4,23.2,30.02,NW,309,1.0,4.0,84,0.00,,---,0.00,VWS V14.01,2013-05-04 23:22:00,
2013-05-04 15:27:00,27.6,23.4,30.02,NW,308,2.0,4.0,84,0.00,,---,0.00,VWS V14.01,2013-05-04 23:27:00,
2013-05-04 15:30:00,27.6,23.1,30.02,NW,315,1.0,5.0,83,0.00,,---,0.00,VWS V14.01,2013-05-04 23:30:00,
2013-05-04 15:32:00,27.6,23.1,30.02,NW,311,1.0,3.0,83,0.00,,---,0.00,VWS V14.01,2013-05-04 23:32:00,
2013-05-04 15:37:00,27.6,23.1,30.02,WNW,290,2.0,4.0,83,0.00,,---,0.00,VWS V14.01,2013-05-04 23:37:00,
2013-05-04 15:42:00,27.8,23.3,30.02,WSW,258,1.0,5.0,83,0.00,,---,0.00,VWS V14.01,2013-05-04 23:42:00,
2013-05-04 15:47:00,27.9,23.1,30.02,NW,320,1.0,6.0,82,0.00,,---,0.00,VWS V14.01,2013-05-04 23:47:00,
2013-05-04 15:52:00,28.1,23.3,30.02,West,268,3.0,6.0,82,0.00,,---,0.00,VWS V14.01,2013-05-04 23:52:00,
2013-05-04 15:57:00,28.1,23.3,30.02,West,269,3.0,6.0,82,0.00,,---,0.00,VWS V14.01,2013-05-04 23:57:00,
2013-05-04 16:00:00,28.3,23.5,30.02,NW,315,2.0,7.0,82,0.00,,---,0.00,VWS V14.01,2013-05-05 00:00:00,
2013-05-04 16:02:00,28.3,23.2,30.02,WNW,298,2.0,3.0,81,0.00,,---,0.00,VWS V14.01,2013-05-05 00:02:00,
2013-05-04 16:07:00,28.3,22.9,30.02,SW,232,3.0,6.0,80,0.00,,---,0.00,VWS V14.01,2013-05-05 00:07:00,
2013-05-04 16:12:00,28.5,23.1,30.02,WSW,238,0.0,6.0,80,0.00,,---,0.00,VWS V14.01,2013-05-05 00:12:00,
2013-05-04 16:17:00,28.8,23.4,30.02,WSW,238,2.0,6.0,80,0.00,,---,0.00,VWS V14.01,2013-05-05 00:17:00,
2013-05-04 16:22:00,29.1,23.4,30.02,WNW,302,1.0,6.0,79,0.00,,---,0.00,VWS V14.01,2013-05-05 00:22:00,
2013-05-04 16:27:00,29.4,23.4,30.02,NW,315,0.0,6.0,78,0.00,,---,0.00,VWS V14.01,2013-05-05 00:27:00,
2013-05-04 16:30:00,29.6,23.3,30.02,WNW,292,2.0,6.0,77,0.00,,---,0.00,VWS V14.01,2013-05-05 00:30:00,
2013-05-04 16:32:00,29.6,23.3,30.02,WSW,244,4.0,5.0,77,0.00,,---,0.00,VWS V14.01,2013-05-05 00:32:00,
2013-05-04 16:37:00,29.6,23.3,30.02,West,280,2.0,5.0,77,0.00,,---,0.00,VWS V14.01,2013-05-05 00:37:00,
2013-05-04 16:42:00,29.8,22.9,30.03,West,269,0.0,5.0,75,0.00,,---,0.00,VWS V14.01,2013-05-05 00:42:00,
2013-05-04 16:47:00,29.9,23.0,30.02,West,267,2.0,5.0,75,0.00,,---,0.00,VWS V14.01,2013-05-05 00:47:00,
2013-05-04 16:52:00,29.9,22.6,30.02,West,273,0.0,5.0,74,0.00,,---,0.00,VWS V14.01,2013-05-05 00:52:00,
2013-05-04 16:57:00,30.0,23.0,30.02,WNW,285,1.0,5.0,75,0.00,,---,0.00,VWS V14.01,2013-05-05 00:57:00,
2013-05-04 17:00:00,29.9,22.6,30.02,West,270,2.0,6.0,74,0.00,,---,0.00,VWS V14.01,2013-05-05 01:00:00,
2013-05-04 17:02:00,30.0,22.7,30.02,WNW,287,1.0,1.0,74,0.00,,---,0.00,VWS V14.01,2013-05-05 01:02:00,
2013-05-04 17:07:00,30.0,23.0,30.02,NW,311,0.0,3.0,75,0.00,,---,0.00,VWS V14.01,2013-05-05 01:07:00,
2013-05-04 17:12:00,30.0,23.4,30.02,WSW,242,1.0,3.0,76,0.00,,---,0.00,VWS V14.01,2013-05-05 01:12:00,
2013-05-04 17:17:00,29.4,23.1,30.02,WSW,251,1.0,5.0,77,0.00,,---,0.00,VWS V14.01,2013-05-05 01:17:00,
2013-05-04 17:22:00,29.1,23.1,30.02,WSW,252,3.0,5.0,78,0.00,,---,0.00,VWS V14.01,2013-05-05 01:22:00,
2013-05-04 17:27:00,28.9,22.9,30.02,SW,231,1.0,5.0,78,0.00,,---,0.00,VWS V14.01,2013-05-05 01:27:00,
2013-05-04 17:30:00,28.9,23.5,30.03,SW,225,2.0,6.0,80,0.00,,---,0.00,VWS V14.01,2013-05-05 01:30:00,
2013-05-04 17:32:00,28.9,23.5,30.02,SW,231,0.0,0.0,80,0.00,,---,0.00,VWS V14.01,2013-05-05 01:32:00,
2013-05-04 17:37:00,28.9,23.5,30.03,SW,231,2.0,3.0,80,0.00,,---,0.00,VWS V14.01,2013-05-05 01:37:00,
2013-05-04 17:42:00,28.9,23.5,30.02,SW,231,0.0,3.0,80,0.00,,---,0.00,VWS V14.01,2013-05-05 01:42:00,
2013-05-04 17:47:00,29.1,23.4,30.02,SW,231,0.0,3.0,79,0.00,,---,0.00,VWS V14.01,2013-05-05 01:47:00,
2013-05-04 17:52:00,29.1,23.7,30.03,SW,229,1.0,3.0,80,0.00,,---,0.00,VWS V14.01,2013-05-05 01:52:00,
2013-05-04 17:57:00,29.0,23.6,30.03,SW,222,4.0,4.0,80,0.00,,---,0.00,VWS V14.01,2013-05-05 01:57:00,
2013-05-04 18:00:00,29.0,23.9,30.03,SW,222,0.0,4.0,81,0.00,,---,0.00,VWS V14.01,2013-05-05 02:00:00,
2013-05-04 18:02:00,29.0,23.9,30.03,SW,222,0.0,0.0,81,0.00,,---,0.00,VWS V14.01,2013-05-05 02:02:00,
2013-05-04 18:07:00,29.0,23.6,30.03,South,169,1.0,5.0,80,0.00,,---,0.00,VWS V14.01,2013-05-05 02:07:00,
2013-05-04 18:12:00,29.1,23.7,30.03,South,183,1.0,5.0,80,0.00,,---,0.00,VWS V14.01,2013-05-05 02:12:00,
2013-05-04 18:17:00,29.0,23.6,30.03,South,185,3.0,5.0,80,0.00,,---,0.00,VWS V14.01,2013-05-05 02:17:00,
2013-05-04 18:22:00,29.0,23.6,30.03,South,185,0.0,5.0,80,0.00,,---,0.00,VWS V14.01,2013-05-05 02:22:00,
2013-05-04 18:26:00,28.9,23.5,30.03,South,185,3.0,5.0,80,0.00,,---,0.00,VWS V14.01,2013-05-05 02:26:00,
2013-05-04 18:30:00,29.0,23.9,30.03,South,180,1.0,5.0,81,0.00,,---,0.00,VWS V14.01,2013-05-05 02:30:00,
2013-05-04 18:31:00,29.0,23.9,30.03,South,176,5.0,5.0,81,0.00,,---,0.00,VWS V14.01,2013-05-05 02:31:00,
2013-05-04 18:36:00,29.0,23.9,30.03,South,175,0.0,5.0,81,0.00,,---,0.00,VWS V14.01,2013-05-05 02:36:00,
2013-05-04 18:41:00,29.1,24.0,30.04,SW,222,3.0,5.0,81,0.00,,---,0.00,VWS V14.01,2013-05-05 02:41:00,
2013-05-04 18:46:00,29.2,23.8,30.04,SW,222,2.0,5.0,80,0.00,,---,0.00,VWS V14.01,2013-05-05 02:46:00,
2013-05-04 18:51:00,29.4,24.3,30.04,SW,222,0.0,5.0,81,0.00,,---,0.00,VWS V14.01,2013-05-05 02:51:00,
2013-05-04 18:56:00,29.7,24.3,30.04,SW,222,0.0,5.0,80,0.00,,---,0.00,VWS V14.01,2013-05-05 02:56:00,
2013-05-04 19:00:00,29.9,24.2,30.04,SW,225,1.0,6.0,79,0.00,,---,0.00,VWS V14.01,2013-05-05 03:00:00,
2013-05-04 19:01:00,29.9,24.2,30.04,SW,222,0.0,0.0,79,0.00,,---,0.00,VWS V14.01,2013-05-05 03:01:00,
2013-05-04 19:06:00,30.4,24.1,30.04,SW,222,1.0,2.0,77,0.00,,---,0.00,VWS V14.01,2013-05-05 03:06:00,
2013-05-04 19:11:00,31.0,22.7,30.04,WNW,302,0.0,5.0,71,0.00,,---,0.00,VWS V14.01,2013-05-05 03:11:00,
2013-05-04 19:16:00,31.6,21.9,30.05,NNW,339,1.0,5.0,67,0.00,,---,0.00,VWS V14.01,2013-05-05 03:16:00,
2013-05-04 19:21:00,31.9,21.9,30.05,NNW,327,4.0,5.0,66,0.00,,---,0.00,VWS V14.01,2013-05-05 03:21:00,
2013-05-04 19:26:00,32.0,21.6,30.05,NW,323,1.0,5.0,65,0.00,,---,0.00,VWS V14.01,2013-05-05 03:26:00,
2013-05-04 19:30:00,31.7,20.9,30.05,SW,225,1.0,6.0,64,0.00,,---,0.00,VWS V14.01,2013-05-05 03:30:00,
2013-05-04 19:31:00,31.7,20.9,30.05,WNW,298,2.0,2.0,64,0.00,,---,0.00,VWS V14.01,2013-05-05 03:31:00,
2013-05-04 19:36:00,31.4,20.6,30.05,NW,306,0.0,5.0,64,0.00,,---,0.00,VWS V14.01,2013-05-05 03:36:00,
2013-05-04 19:41:00,31.2,20.5,30.05,WNW,286,0.0,5.0,64,0.00,,---,0.00,VWS V14.01,2013-05-05 03:41:00,
2013-05-04 19:46:00,31.0,20.3,30.05,WNW,303,0.0,5.0,64,0.00,,---,0.00,VWS V14.01,2013-05-05 03:46:00,
2013-05-04 19:51:00,30.9,20.2,30.05,NNW,336,2.0,5.0,64,0.00,,---,0.00,VWS V14.01,2013-05-05 03:51:00,
2013-05-04 19:56:00,31.0,19.9,30.05,WNW,302,0.0,5.0,63,0.00,,---,0.00,VWS V14.01,2013-05-05 03:56:00,
2013-05-04 20:00:00,31.2,19.7,30.05,WNW,292,1.0,5.0,62,0.00,,---,0.00,VWS V14.01,2013-05-05 04:00:00,
2013-05-04 20:01:00,31.2,20.1,30.05,NW,309,0.0,5.0,63,0.00,,---,0.00,VWS V14.01,2013-05-05 04:01:00,
2013-05-04 20:06:00,31.3,19.8,30.05,NW,324,2.0,5.0,62,0.00,,---,0.00,VWS V14.01,2013-05-05 04:06:00,
2013-05-04 20:11:00,31.4,19.5,30.05,WNW,298,0.0,5.0,61,0.00,,---,0.00,VWS V14.01,2013-05-05 04:11:00,
2013-05-04 20:16:00,31.5,19.2,30.05,West,266,1.0,6.0,60,0.00,,---,0.00,VWS V14.01,2013-05-05 04:16:00,
2013-05-04 20:21:00,31.3,19.0,30.06,NNW,333,1.0,6.0,60,0.00,,---,0.00,VWS V14.01,2013-05-05 04:21:00,
2013-05-04 20:26:00,31.3,19.0,30.06,NNW,336,0.0,6.0,60,0.00,,---,0.00,VWS V14.01,2013-05-05 04:26:00,
2013-05-04 20:30:00,31.3,19.4,30.06,NW,315,1.0,8.0,61,0.00,,---,0.00,VWS V14.01,2013-05-05 04:30:00,
2013-05-04 20:31:00,31.3,19.4,30.06,NW,312,0.0,6.0,61,0.00,,---,0.00,VWS V14.01,2013-05-05 04:31:00,
2013-05-04 20:36:00,31.3,19.0,30.06,WNW,300,1.0,3.0,60,0.00,,---,0.00,VWS V14.01,2013-05-05 04:36:00,
2013-05-04 20:41:00,31.2,19.0,30.06,NNW,328,0.0,3.0,60,0.00,,---,0.00,VWS V14.01,2013-05-05 04:41:00,
2013-05-04 20:46:00,31.2,19.0,30.06,NW,320,2.0,4.0,60,0.00,,---,0.00,VWS V14.01,2013-05-05 04:46:00,
2013-05-04 20:51:00,31.2,19.0,30.06,NW,310,0.0,4.0,60,0.00,,---,0.00,VWS V14.01,2013-05-05 04:51:00,
2013-05-04 20:56:00,31.3,18.6,30.06,NW,310,0.0,4.0,59,0.00,,---,0.00,VWS V14.01,2013-05-05 04:56:00,
2013-05-04 21:00:00,31.3,18.6,30.07,NW,310,0.0,4.0,59,0.00,,---,0.00,VWS V14.01,2013-05-05 05:00:00,
2013-05-04 21:01:00,31.3,18.6,30.07,NW,310,0.0,4.0,59,0.00,,---,0.00,VWS V14.01,2013-05-05 05:01:00,
2013-05-04 21:06:00,31.2,18.5,30.07,NW,319,0.0,2.0,59,0.00,,---,0.00,VWS V14.01,2013-05-05 05:06:00,
2013-05-04 21:11:00,31.1,18.5,30.07,NNE,31,1.0,4.0,59,0.00,,---,0.00,VWS V14.01,2013-05-05 05:11:00,
2013-05-04 21:16:00,31.0,18.4,30.07,NNE,29,0.0,4.0,59,0.00,,---,0.00,VWS V14.01,2013-05-05 05:16:00,
2013-05-04 21:21:00,30.8,18.2,30.07,NNE,19,0.0,4.0,59,0.00,,---,0.00,VWS V14.01,2013-05-05 05:21:00,
2013-05-04 21:26:00,30.7,18.1,30.07,NNW,348,0.0,4.0,59,0.00,,---,0.00,VWS V14.01,2013-05-05 05:26:00,
2013-05-04 21:30:00,30.5,17.9,30.07,NW,315,1.0,5.0,59,0.00,,---,0.00,VWS V14.01,2013-05-05 05:30:00,
2013-05-04 21:31:00,30.5,17.9,30.07,North,360,0.0,5.0,59,0.00,,---,0.00,VWS V14.01,2013-05-05 05:31:00,
2013-05-04 21:36:00,30.3,17.7,30.08,North,360,0.0,3.0,59,0.00,,---,0.00,VWS V14.01,2013-05-05 05:36:00,
2013-05-04 21:41:00,30.2,17.6,30.08,North,360,0.0,3.0,59,0.00,,---,0.00,VWS V14.01,2013-05-05 05:41:00,
2013-05-04 21:46:00,30.1,17.9,30.08,North,360,0.0,3.0,60,0.00,,---,0.00,VWS V14.01,2013-05-05 05:46:00,
2013-05-04 21:51:00,29.8,17.2,30.08,North,360,0.0,3.0,59,0.00,,---,0.00,VWS V14.01,2013-05-05 05:51:00,
2013-05-04 21:56:00,29.7,17.5,30.08,North,360,0.0,3.0,60,0.00,,---,0.00,VWS V14.01,2013-05-05 05:56:00,
2013-05-04 22:00:00,29.6,17.4,30.08,North,0,0.0,3.0,60,0.00,,---,0.00,VWS V14.01,2013-05-05 06:00:00,
2013-05-04 22:01:00,29.6,17.4,30.08,North,360,0.0,3.0,60,0.00,,---,0.00,VWS V14.01,2013-05-05 06:01:00,
2013-05-04 22:06:00,29.4,17.2,30.08,North,360,0.0,1.0,60,0.00,,---,0.00,VWS V14.01,2013-05-05 06:06:00,
2013-05-04 22:10:00,29.3,17.1,30.09,North,360,0.0,1.0,60,0.00,,---,0.00,VWS V14.01,2013-05-05 06:10:00,
2013-05-04 22:15:00,29.1,17.0,30.09,North,360,0.0,1.0,60,0.00,,---,0.00,VWS V14.01,2013-05-05 06:15:00,
2013-05-04 22:20:00,29.0,17.2,30.09,North,360,0.0,1.0,61,0.00,,---,0.00,VWS V14.01,2013-05-05 06:20:00,
2013-05-04 22:25:00,28.8,17.1,30.09,North,360,0.0,1.0,61,0.00,,---,0.00,VWS V14.01,2013-05-05 06:25:00,
2013-05-04 22:30:00,28.6,17.2,30.09,North,360,0.0,1.0,62,0.00,,---,0.00,VWS V14.01,2013-05-05 06:30:00,
2013-05-04 22:35:00,28.5,16.8,30.10,North,360,0.0,2.0,61,0.00,,---,0.00,VWS V14.01,2013-05-05 06:35:00,
2013-05-04 22:40:00,28.4,17.1,30.10,North,360,0.0,2.0,62,0.00,,---,0.00,VWS V14.01,2013-05-05 06:40:00,
2013-05-04 22:45:00,28.3,17.0,30.10,North,360,0.0,2.0,62,0.00,,---,0.00,VWS V14.01,2013-05-05 06:45:00,
2013-05-04 22:50:00,28.2,16.9,30.10,North,360,1.0,2.0,62,0.00,,---,0.00,VWS V14.01,2013-05-05 06:50:00,
2013-05-04 22:55:00,28.1,16.8,30.10,North,360,0.0,2.0,62,0.00,,---,0.00,VWS V14.01,2013-05-05 06:55:00,
2013-05-04 23:00:00,28.0,16.7,30.10,North,360,0.0,2.0,62,0.00,,---,0.00,VWS V14.01,2013-05-05 07:00:00,
2013-05-04 23:05:00,27.9,16.6,30.10,North,360,0.0,0.0,62,0.00,,---,0.00,VWS V14.01,2013-05-05 07:05:00,
2013-05-04 23:10:00,27.9,16.6,30.11,North,360,0.0,1.0,62,0.00,,---,0.00,VWS V14.01,2013-05-05 07:10:00,
2013-05-04 23:15:00,27.8,16.5,30.11,North,360,0.0,1.0,62,0.00,,---,0.00,VWS V14.01,2013-05-05 07:15:00,
2013-05-04 23:20:00,27.7,16.8,30.11,North,360,0.0,1.0,63,0.00,,---,0.00,VWS V14.01,2013-05-05 07:20:00,
2013-05-04 23:25:00,27.7,17.1,30.11,North,360,0.0,1.0,64,0.00,,---,0.00,VWS V14.01,2013-05-05 07:25:00,
2013-05-04 23:30:00,27.7,17.5,30.11,North,360,0.0,2.0,65,0.00,,---,0.00,VWS V14.01,2013-05-05 07:30:00,
2013-05-04 23:35:00,27.6,17.4,30.12,North,360,0.0,0.0,65,0.00,,---,0.00,VWS V14.01,2013-05-05 07:35:00,
2013-05-04 23:40:00,27.7,17.1,30.12,North,360,0.0,0.0,64,0.00,,---,0.00,VWS V14.01,2013-05-05 07:40:00,
2013-05-04 23:45:00,27.8,17.2,30.12,North,360,0.0,0.0,64,0.00,,---,0.00,VWS V14.01,2013-05-05 07:45:00,
2013-05-04 23:50:00,27.7,17.1,30.12,North,360,0.0,0.0,64,0.00,,---,0.00,VWS V14.01,2013-05-05 07:50:00,
2013-05-04 23:55:00,27.7,17.1,30.12,North,360,0.0,0.0,64,0.00,,---,0.00,VWS V14.01,2013-05-05 07:55:00,